Location: Hawks Ness
(60.2333°N, 1.1667°W)
Time: 21:50:51
(UTC+00:00)

Meteor 2-14 Rocket - Pass Details

Date: 22 October 2019
Orbit: 937 x 957 km, 82.5° (Epoch: 11 November)

Event Time Altitude Azimuth Distance (km) Brightness Sun altitude
Exits shadow 03:37:00 62° 236° (SW) 1,077 4.4 -25.5°
Maximum altitude 03:37:55 72° 288° (WNW) 1,011 4.3 -25.4°
Drops below altitude 10° 03:44:05 10° 13° (NNE) 2,696 7.2 -24.7°
Sets 03:46:37 0° 15° (NNE) 3,642 8.0 -24.4°
